BTI6EY EETN-EYVI

Flight info

Callsign BTI6EY
Flight time 0h 48m
Altitude 37000
Route NITSO DCT DOLAT M983 LUNIT DCT MURUN DCT PIFBO
Aircraft A320/M-SDE3FGHIRWY/LB1

Departure

Time 2026-05-04 21:36
Airport Lennart Meri Tallinn Airport (EETN)

Arrival

Time 2026-05-04 22:24
Airport Vilnius International Airport (EYVI)
Time Latitude Longitude Altitude Speed Heading
2026-05-04 21:10 59.41585 24.80063 162 ft 0 kts
2026-05-04 21:27 59.41580 24.80063 162 ft 4 kts
2026-05-04 21:27 59.41553 24.80062 162 ft 4 kts
2026-05-04 21:28 59.41526 24.80061 162 ft 4 kts
2026-05-04 21:28 59.41516 24.80061 162 ft 0 kts
2026-05-04 21:30 59.41516 24.80062 162 ft 1 kts
2026-05-04 21:31 59.41527 24.80309 162 ft 15 kts 91°
2026-05-04 21:31 59.41515 24.80506 162 ft 14 kts 101°
2026-05-04 21:31 59.41507 24.80740 162 ft 24 kts 90°
2026-05-04 21:32 59.41505 24.81130 162 ft 30 kts 90°
2026-05-04 21:32 59.41504 24.81551 162 ft 31 kts 90°
2026-05-04 21:32 59.41503 24.81975 162 ft 28 kts 90°
2026-05-04 21:32 59.41502 24.82368 162 ft 30 kts 90°
2026-05-04 21:33 59.41501 24.82780 162 ft 31 kts 90°
2026-05-04 21:33 59.41500 24.83212 162 ft 32 kts 90°
2026-05-04 21:33 59.41499 24.83639 162 ft 31 kts 90°
2026-05-04 21:33 59.41498 24.84052 162 ft 30 kts 90°
2026-05-04 21:34 59.41497 24.84468 162 ft 32 kts 90°
2026-05-04 21:34 59.41496 24.84853 162 ft 21 kts 90°
2026-05-04 21:34 59.41456 24.85001 162 ft 11 kts 153°
2026-05-04 21:34 59.41374 24.85011 162 ft 13 kts 180°
2026-05-04 21:35 59.41321 24.84961 162 ft 8 kts 253°
2026-05-04 21:35 59.41321 24.84805 162 ft 22 kts 270°
2026-05-04 21:35 59.41324 24.83981 162 ft 95 kts 271°
2026-05-04 21:35 59.41327 24.82298 176 ft 147 kts 270°
2026-05-04 21:36 59.41333 24.80278 775 ft 147 kts 267°
2026-05-04 21:36 59.41336 24.78287 1552 ft 143 kts 268°
2026-05-04 21:36 59.41038 24.76441 2061 ft 158 kts 229°
2026-05-04 21:36 59.39951 24.75466 2372 ft 195 kts 190°
2026-05-04 21:37 59.38489 24.75900 2750 ft 228 kts 174°
2026-05-04 21:37 59.36869 24.76553 3305 ft 248 kts 174°
2026-05-04 21:37 59.35108 24.77234 3951 ft 265 kts 174°
2026-05-04 21:37 59.33281 24.77935 4904 ft 270 kts 174°
2026-05-04 21:38 59.31428 24.78642 5849 ft 273 kts 174°
2026-05-04 21:38 59.29551 24.79350 6779 ft 276 kts 174°
2026-05-04 21:38 59.27654 24.80053 7689 ft 279 kts 175°
2026-05-04 21:38 59.25737 24.80760 8635 ft 281 kts 176°
2026-05-04 21:39 59.23808 24.81470 9573 ft 283 kts 177°
2026-05-04 21:39 59.21857 24.82176 10330 ft 291 kts 178°
2026-05-04 21:39 59.19779 24.82906 10609 ft 315 kts 177°
2026-05-04 21:39 59.17545 24.83693 10909 ft 336 kts 176°
2026-05-04 21:40 59.15215 24.84536 11566 ft 344 kts 176°
2026-05-04 21:40 59.12850 24.85409 12322 ft 348 kts 176°
2026-05-04 21:40 59.10453 24.86300 13087 ft 352 kts 176°
2026-05-04 21:40 59.08034 24.87196 13802 ft 356 kts 177°
2026-05-04 21:41 59.05586 24.88090 14475 ft 360 kts 177°
2026-05-04 21:41 59.03114 24.88985 15143 ft 363 kts 177°
2026-05-04 21:41 59.00616 24.89887 15797 ft 367 kts 177°
2026-05-04 21:41 58.98094 24.90803 16448 ft 371 kts 177°
2026-05-04 21:42 58.95545 24.91731 17088 ft 374 kts 177°
2026-05-04 21:42 58.92979 24.92664 17754 ft 377 kts 177°
2026-05-04 21:42 58.90386 24.93601 18330 ft 381 kts 177°
2026-05-04 21:42 58.87769 24.94537 18889 ft 385 kts 177°
2026-05-04 21:43 58.85123 24.95480 19432 ft 388 kts 176°
2026-05-04 21:43 58.82451 24.96433 19991 ft 392 kts 176°
2026-05-04 21:43 58.79753 24.97022 20540 ft 388 kts 186°
2026-05-04 21:43 58.77045 24.97064 21091 ft 391 kts 186°
2026-05-04 21:44 58.74316 24.97104 21636 ft 394 kts 186°
2026-05-04 21:44 58.71561 24.97147 22151 ft 398 kts 186°
2026-05-04 21:44 58.68780 24.97193 22661 ft 401 kts 186°
2026-05-04 21:44 58.65975 24.97243 23157 ft 405 kts 186°
2026-05-04 21:45 58.63145 24.97290 23603 ft 408 kts 186°
2026-05-04 21:45 58.60293 24.97337 23991 ft 411 kts 186°
2026-05-04 21:45 58.57418 24.97385 24345 ft 414 kts 186°
2026-05-04 21:45 58.54568 24.97438 24720 ft 417 kts 185°
2026-05-04 21:46 58.51653 24.97494 25090 ft 420 kts 185°
2026-05-04 21:46 58.48721 24.97551 25454 ft 423 kts 185°
2026-05-04 21:46 58.45772 24.97605 25821 ft 425 kts 185°
2026-05-04 21:46 58.42802 24.97656 26183 ft 428 kts 185°
2026-05-04 21:47 58.39816 24.97703 26539 ft 431 kts 185°
2026-05-04 21:47 58.36812 24.97748 26884 ft 433 kts 185°
2026-05-04 21:47 58.33785 24.97796 27226 ft 436 kts 185°
2026-05-04 21:47 58.30742 24.97847 27555 ft 438 kts 185°
2026-05-04 21:48 58.27685 24.97900 27855 ft 441 kts 185°
2026-05-04 21:48 58.24612 24.97954 28167 ft 443 kts 185°
2026-05-04 21:48 58.21518 24.98009 28471 ft 446 kts 185°
2026-05-04 21:48 58.18407 24.98067 28754 ft 448 kts 185°
2026-05-04 21:49 58.15283 24.98124 29047 ft 450 kts 185°
2026-05-04 21:49 58.12138 24.98175 29331 ft 452 kts 185°
2026-05-04 21:49 58.08987 24.98222 29596 ft 455 kts 185°
2026-05-04 21:49 58.05813 24.98270 29853 ft 457 kts 184°
2026-05-04 21:50 58.02633 24.98321 30111 ft 457 kts 184°
2026-05-04 21:50 57.99451 24.98402 30416 ft 457 kts 184°
2026-05-04 21:50 57.96270 24.98611 30684 ft 458 kts 182°
2026-05-04 21:50 57.93088 24.98921 30973 ft 458 kts 181°
2026-05-04 21:51 57.89909 24.99281 31258 ft 458 kts 181°
2026-05-04 21:51 57.86726 24.99648 31553 ft 458 kts 181°
2026-05-04 21:51 57.83550 24.99995 31849 ft 457 kts 181°
2026-05-04 21:51 57.80376 25.00314 32147 ft 456 kts 182°
2026-05-04 21:52 57.77207 25.00610 32449 ft 456 kts 182°
2026-05-04 21:52 57.74037 25.00891 32751 ft 455 kts 182°
2026-05-04 21:52 57.70884 25.01166 33093 ft 454 kts 182°
2026-05-04 21:52 57.67735 25.01446 33387 ft 453 kts 182°
2026-05-04 21:53 57.64592 25.01732 33730 ft 451 kts 182°
2026-05-04 21:53 57.61460 25.02022 34011 ft 451 kts 182°
2026-05-04 21:53 57.58327 25.02312 34275 ft 450 kts 182°
2026-05-04 21:53 57.55202 25.02598 34530 ft 450 kts 182°
2026-05-04 21:54 57.52077 25.02881 34781 ft 449 kts 182°
2026-05-04 21:54 57.48956 25.03160 35025 ft 449 kts 182°
2026-05-04 21:54 57.45875 25.03435 35253 ft 449 kts 182°
2026-05-04 21:54 57.42757 25.03714 35474 ft 449 kts 182°
2026-05-04 21:55 57.39640 25.04000 35708 ft 449 kts 182°
2026-05-04 21:55 57.36523 25.04283 35896 ft 448 kts 182°
2026-05-04 21:55 57.33410 25.04565 36119 ft 448 kts 182°
2026-05-04 21:55 57.30300 25.04847 36331 ft 448 kts 182°
2026-05-04 21:56 57.27183 25.05121 36540 ft 448 kts 182°
2026-05-04 21:56 57.24076 25.05406 36741 ft 448 kts 182°
2026-05-04 21:56 57.20960 25.05711 36830 ft 449 kts 182°
2026-05-04 21:57 57.14723 25.06348 36825 ft 449 kts 182°
2026-05-04 21:57 57.08496 25.06992 36835 ft 448 kts 182°
2026-05-04 21:58 57.02277 25.07624 36846 ft 448 kts 182°
2026-05-04 21:58 56.96057 25.08245 36838 ft 448 kts 182°
2026-05-04 21:59 56.89839 25.08864 36835 ft 448 kts 182°
2026-05-04 21:59 56.83618 25.09483 36841 ft 448 kts 182°
2026-05-04 22:00 56.77395 25.10095 36837 ft 448 kts 182°
2026-05-04 22:00 56.71175 25.10697 36833 ft 448 kts 182°
2026-05-04 22:01 56.64950 25.11302 36842 ft 448 kts 182°
2026-05-04 22:01 56.58724 25.11910 36823 ft 448 kts 182°
2026-05-04 22:02 56.52504 25.12510 36847 ft 448 kts 182°
2026-05-04 22:02 56.46285 25.13100 36854 ft 447 kts 182°
2026-05-04 22:03 56.40069 25.13684 36851 ft 447 kts 183°
2026-05-04 22:03 56.33855 25.14284 36762 ft 448 kts 183°
2026-05-04 22:03 56.30746 25.14621 36106 ft 450 kts 182°
2026-05-04 22:04 56.27590 25.15087 34900 ft 460 kts 181°
2026-05-04 22:04 56.24396 25.15671 33981 ft 461 kts 181°
2026-05-04 22:04 56.21209 25.16317 32965 ft 460 kts 181°
2026-05-04 22:04 56.18028 25.16972 31899 ft 460 kts 181°
2026-05-04 22:05 56.14866 25.17609 30501 ft 455 kts 182°
2026-05-04 22:05 56.11719 25.18210 28728 ft 454 kts 182°
2026-05-04 22:05 56.08642 25.18773 28067 ft 444 kts 182°
2026-05-04 22:05 56.05622 25.19325 27704 ft 430 kts 183°
2026-05-04 22:06 56.02664 25.19851 27010 ft 425 kts 182°
2026-05-04 22:06 55.99745 25.20361 26397 ft 419 kts 182°
2026-05-04 22:06 55.96860 25.20862 25757 ft 414 kts 182°
2026-05-04 22:06 55.94005 25.21357 25133 ft 410 kts 182°
2026-05-04 22:07 55.91180 25.21846 24523 ft 406 kts 182°
2026-05-04 22:07 55.88380 25.22332 23919 ft 402 kts 182°
2026-05-04 22:07 55.85609 25.22819 23266 ft 399 kts 182°
2026-05-04 22:07 55.82862 25.23307 22676 ft 394 kts 181°
2026-05-04 22:08 55.80152 25.23791 22145 ft 388 kts 181°
2026-05-04 22:08 55.77480 25.24265 21617 ft 384 kts 182°
2026-05-04 22:08 55.74837 25.24732 21129 ft 380 kts 182°
2026-05-04 22:08 55.72221 25.25192 20644 ft 376 kts 182°
2026-05-04 22:09 55.69633 25.25646 20177 ft 372 kts 182°
2026-05-04 22:09 55.67074 25.26096 19712 ft 368 kts 182°
2026-05-04 22:09 55.64541 25.26543 19259 ft 364 kts 182°
2026-05-04 22:09 55.62029 25.26985 18810 ft 361 kts 182°
2026-05-04 22:10 55.59540 25.27420 18350 ft 358 kts 182°
2026-05-04 22:10 55.57901 25.27704 18019 ft 357 kts 182°
2026-05-04 22:10 55.55439 25.28132 17505 ft 354 kts 181°
2026-05-04 22:10 55.53005 25.28557 17045 ft 350 kts 181°
2026-05-04 22:11 55.50589 25.28984 16575 ft 347 kts 181°
2026-05-04 22:11 55.48192 25.29406 16105 ft 345 kts 181°
2026-05-04 22:11 55.45808 25.29817 15626 ft 344 kts 181°
2026-05-04 22:11 55.43430 25.30222 15134 ft 343 kts 181°
2026-05-04 22:12 55.41060 25.30626 14650 ft 342 kts 181°
2026-05-04 22:12 55.38690 25.31032 14149 ft 342 kts 181°
2026-05-04 22:12 55.35558 25.31570 13473 ft 342 kts 181°
2026-05-04 22:12 55.33960 25.31845 13110 ft 341 kts 181°
2026-05-04 22:13 55.31606 25.32250 12615 ft 338 kts 180°
2026-05-04 22:13 55.29271 25.32651 12095 ft 337 kts 180°
2026-05-04 22:13 55.26946 25.33050 11632 ft 334 kts 180°
2026-05-04 22:13 55.24642 25.33451 11118 ft 332 kts 180°
2026-05-04 22:14 55.22354 25.33848 10642 ft 329 kts 180°
2026-05-04 22:14 55.20120 25.34240 10507 ft 316 kts 181°
2026-05-04 22:14 55.17978 25.34618 10384 ft 303 kts 181°
2026-05-04 22:14 55.15919 25.34977 10249 ft 292 kts 181°
2026-05-04 22:15 55.13919 25.35319 10030 ft 286 kts 181°
2026-05-04 22:15 55.11948 25.35646 9853 ft 284 kts 182°
2026-05-04 22:15 55.10008 25.35963 9730 ft 283 kts 182°
2026-05-04 22:15 55.08016 25.36291 9389 ft 285 kts 182°
2026-05-04 22:16 55.06065 25.36618 8946 ft 285 kts 181°
2026-05-04 22:16 55.04075 25.36959 8487 ft 285 kts 181°
2026-05-04 22:16 55.02148 25.37288 8183 ft 280 kts 181°
2026-05-04 22:16 55.00217 25.37615 7751 ft 278 kts 181°
2026-05-04 22:17 54.98313 25.37938 7128 ft 273 kts 181°
2026-05-04 22:17 54.96445 25.38256 6567 ft 267 kts 181°
2026-05-04 22:17 54.94612 25.38571 6105 ft 263 kts 180°
2026-05-04 22:17 54.92795 25.38879 5648 ft 262 kts 181°
2026-05-04 22:18 54.90982 25.39183 5207 ft 262 kts 181°
2026-05-04 22:18 54.89163 25.39483 4765 ft 264 kts 181°
2026-05-04 22:18 54.87353 25.39785 4528 ft 255 kts 181°
2026-05-04 22:18 54.85631 25.40086 4388 ft 243 kts 181°
2026-05-04 22:19 54.83989 25.40373 4260 ft 232 kts 181°
2026-05-04 22:19 54.82421 25.40643 4127 ft 221 kts 181°
2026-05-04 22:19 54.80945 25.40644 4000 ft 203 kts 198°
2026-05-04 22:19 54.79659 25.39911 3854 ft 191 kts 208°
2026-05-04 22:20 54.78437 25.39049 3609 ft 187 kts 209°
2026-05-04 22:20 54.77250 25.38213 3383 ft 182 kts 209°
2026-05-04 22:20 54.76090 25.37401 3135 ft 178 kts 209°
2026-05-04 22:20 54.74958 25.36611 2900 ft 173 kts 209°
2026-05-04 22:21 54.73852 25.35839 2673 ft 170 kts 210°
2026-05-04 22:21 54.72759 25.35076 2446 ft 169 kts 209°
2026-05-04 22:21 54.71681 25.34326 2234 ft 162 kts 208°
2026-05-04 22:21 54.70687 25.33638 2017 ft 147 kts 209°
2026-05-04 22:22 54.69760 25.32992 1817 ft 141 kts 210°
2026-05-04 22:22 54.68848 25.32350 1602 ft 142 kts 209°
2026-05-04 22:22 54.67928 25.31701 1406 ft 143 kts 207°
2026-05-04 22:22 54.67004 25.31070 1256 ft 142 kts 205°
2026-05-04 22:23 54.66091 25.30442 1054 ft 140 kts 204°
2026-05-04 22:23 54.65189 25.29813 857 ft 139 kts 204°
2026-05-04 22:23 54.64291 25.29193 674 ft 138 kts 205°
2026-05-04 22:23 54.63499 25.28636 615 ft 101 kts 201°
2026-05-04 22:24 54.63005 25.28295 602 ft 52 kts 202°
2026-05-04 22:24 54.62710 25.28088 599 ft 43 kts 202°
2026-05-04 22:24 54.62484 25.27931 602 ft 21 kts 201°
2026-05-04 22:24 54.62425 25.27837 616 ft 10 kts 269°
2026-05-04 22:25 54.62455 25.27742 612 ft 10 kts 321°
2026-05-04 22:25 54.62521 25.27669 604 ft 13 kts 344°
2026-05-04 22:25 54.62621 25.27721 601 ft 18 kts 22°
2026-05-04 22:25 54.62771 25.27824 601 ft 27 kts 22°
2026-05-04 22:26 54.62950 25.27949 614 ft 28 kts 21°
2026-05-04 22:26 54.63129 25.28072 612 ft 28 kts 22°
2026-05-04 22:26 54.63307 25.28197 611 ft 28 kts 22°
2026-05-04 22:26 54.63495 25.28327 622 ft 29 kts 22°
2026-05-04 22:27 54.63640 25.28346 617 ft 20 kts 350°
2026-05-04 22:27 54.63779 25.28297 634 ft 22 kts 348°
2026-05-04 22:27 54.63923 25.28241 638 ft 21 kts 347°
2026-05-04 22:27 54.64056 25.28190 640 ft 17 kts 347°
2026-05-04 22:28 54.64146 25.28165 637 ft 10 kts 15°
2026-05-04 22:28 54.64199 25.28204 637 ft 8 kts 358°
2026-05-04 22:28 54.64226 25.28203 641 ft 2 kts
2026-05-04 22:28 54.64235 25.28203 639 ft 0 kts